Location: Quaker Farms
(41.4276°N, 73.1557°W)
Time: 02:12:42
(UTC+00:00)

Altair - Pass Details

Date: 17 June 2021
Orbit: 1501 x 1682 km, 47.2° (Epoch: 23 July)

Event Time Altitude Azimuth Distance (km) Brightness Sun altitude
Rises 01:04:40 0° 297° (WNW) 4,852 12.2 -6.3°
Reaches altitude 10° 01:07:48 10° 295° (WNW) 3,885 11.1 -6.8°
Maximum altitude 01:17:34 62° 218° (SW) 1,849 7.9 -8.2°
Enters shadow 01:27:21 11° 141° (SE) 3,891 8.9 -9.5°
Drops below altitude 10° 01:27:29 10° 141° (SE) 3,936 - -9.5°
Sets 01:30:42 0° 138° (SE) 4,919 - -10.0°
